Starlink 5850

operational
NORAD ID: 57049 Int'l Des: 2023-088 Owner: SPXS Country: US Constellation: starlink
LEOCIRCULAR

About Starlink 5850

Description loading...

Live Position

Loading 3D Globe...

Upcoming Passes

Altitude History

Altitude vs Time

uPlot chart will show altitude changes over time

Two-Line Element Set

1 57049U 23088B 25306.11034337 .00000396 00000-0 44376-4 0 9990
2 57049 43.0032 81.1211 0001477 267.1240 92.9434 15.02533350131366
Epoch: Nov 2, 2025 • Age: 17 hours

Current Status

Altitude 571.4 km
Velocity 7.58 km/s
Sub-Earth Point -42.99°S, 13.82°E
Launch Date Jun 22, 2023
Age 2.3 years
Type internet

Technical Details

Classification Payload
Mass 305.00 kg
Dry Mass 290.00 kg
Total Mass 305.00 kg
Length 0.20 m
Diameter 2.80 m
Span 9.00 m
Shape Box + pan
Manufacturer SPXS
Bus Type Starlink
Phase Status In Orbit
Owner/State SPXS/US

Large Constellations

Loading constellations...